RH
38 38 38 39 43 45 45 43 42 41 40 38 37 32 27 21 18 17 17 17 18 18 19 19 20 21 22 24 26 25 26 26 25 25 23 21 19 18 18 17 18 18 19 19 19 19 21 26 30 34 36 36 36 34 31 34 40 44 44 46 49 47 44
36 36 36 37 38 37 38 40 40 40 39 39 40 37 33 27 21 19 17 18 18 18 18 20 20 21 22 23 24 25 26 27 27 27 27 26 24 21 20 19 18 19 19 19 20 19 20 24 30 34 36 36 36 35 32 33 38 43 44 46 48 46 41
36 36 36 36 36 35 35 36 38 40 40 40 39 39 36 31 26 23 21 20 21 20 19 20 20 21 21 22 22 23 24 25 25 26 27 28 28 26 25 23 21 20 21 20 20 19 19 22 27 33 35 36 36 34 33 32 36 42 45 45 47 45 40
35 35 35 36 36 37 37 35 34 37 39 39 38 39 38 35 30 27 25 24 23 23 22 21 22 24 26 25 24 24 24 25 25 26 27 29 30 30 29 28 25 24 23 22 21 21 20 20 24 30 33 34 34 34 33 33 35 40 44 45 46 44 39
34 34 36 37 37 39 39 39 37 36 37 39 38 38 39 39 35 30 29 29 28 29 29 28 28 29 30 29 27 26 26 26 25 26 27 28 30 31 32 30 29 27 25 25 23 22 21 20 22 27 31 31 33 32 32 33 35 40 43 44 44 42 38
31 33 34 35 36 37 37 38 39 38 38 39 40 40 40 41 39 34 30 30 31 33 36 37 36 37 37 35 32 30 30 29 28 27 27 28 29 31 32 32 31 29 28 28 27 25 23 21 21 25 28 29 30 31 31 32 35 39 42 43 42 41 37
26 29 31 32 32 33 33 34 36 38 39 40 40 41 42 43 42 40 35 31 31 34 37 38 39 42 43 42 39 36 33 31 30 29 28 28 29 32 32 33 32 31 30 29 29 27 25 23 22 23 27 28 29 30 30 31 34 39 42 42 41 39 37
22 25 28 30 30 30 31 32 34 36 38 40 41 41 42 43 43 43 41 35 32 35 37 38 40 42 44 45 44 41 38 35 31 30 30 30 30 31 32 33 33 32 32 31 30 28 27 26 24 24 25 27 28 30 31 31 34 39 42 42 41 39 36
19 22 25 27 29 30 31 30 32 35 37 39 40 40 41 42 43 44 43 39 35 35 37 37 39 42 43 44 44 44 42 39 35 32 31 31 31 31 31 32 32 32 32 32 31 29 28 27 27 26 26 27 28 29 30 30 33 40 44 42 41 39 37
16 18 21 23 25 27 29 30 31 34 36 37 39 40 40 40 41 43 44 43 39 36 35 38 40 42 42 43 43 45 44 41 38 36 35 34 35 34 32 32 31 30 30 30 31 30 29 28 28 27 27 28 28 29 30 29 33 40 44 43 41 40 38
13 15 17 19 20 21 24 27 30 32 34 35 37 39 40 39 40 42 43 44 42 37 36 38 41 42 42 43 45 46 44 40 39 38 38 38 38 36 35 33 32 30 28 28 28 28 27 28 29 29 29 29 29 29 29 29 32 39 42 42 41 40 38
11 14 15 15 16 18 21 23 27 29 32 33 34 36 38 38 39 40 41 42 42 40 38 38 41 43 43 44 46 46 43 39 38 39 40 40 40 39 38 36 35 33 31 28 27 26 25 25 26 27 29 30 29 29 28 29 32 37 40 41 40 39 38
10 11 12 13 14 17 18 20 22 25 29 31 31 32 35 37 38 39 40 41 41 40 38 39 41 43 44 45 46 45 42 38 37 39 41 42 42 43 42 40 39 37 34 31 29 27 25 25 25 26 27 28 29 29 28 28 32 37 39 40 39 39 38
10 10 10 11 12 13 15 16 18 21 25 29 30 28 30 34 37 39 39 39 40 41 41 42 43 44 44 45 46 44 40 37 38 40 42 42 43 43 43 41 40 39 37 34 31 29 27 26 26 27 27 28 28 28 27 27 32 37 38 38 39 38 38
10 9 9 9 9 11 13 15 18 20 23 28 31 30 28 31 35 38 40 41 41 42 43 44 43 43 43 44 43 41 38 38 39 41 42 43 43 43 43 43 41 40 38 36 33 30 28 27 27 29 29 28 27 26 26 27 32 37 38 38 38 38 38
9 8 8 9 9 10 13 16 19 20 21 26 32 32 29 28 31 34 38 41 41 41 41 41 41 42 43 42 40 39 38 38 40 41 42 42 43 44 44 44 43 41 40 39 37 33 30 28 28 30 31 30 27 25 25 27 32 36 38 38 37 37 38
8 8 8 9 10 11 14 17 19 19 21 24 29 33 31 29 30 31 33 37 39 39 38 38 38 40 40 38 37 38 39 38 39 40 41 42 43 43 45 45 44 43 41 41 40 37 34 31 29 29 31 32 29 25 24 26 31 36 39 38 37 37 38
8 9 8 9 9 11 13 15 17 19 21 24 28 32 33 32 32 32 32 33 33 33 34 35 36 37 37 37 37 38 39 39 39 40 41 41 42 43 44 46 46 45 43 42 41 40 37 35 32 31 32 32 30 27 25 26 29 34 38 38 36 36 37
9 9 10 9 9 9 11 12 14 17 19 23 27 29 31 33 34 32 31 30 29 29 30 31 33 35 37 38 38 39 39 40 40 41 41 41 42 44 46 46 45 45 45 44 43 42 41 38 35 34 33 33 31 29 27 26 28 32 36 37 36 36 37
9 10 10 10 9 9 9 10 11 13 16 19 24 27 29 31 33 32 31 30 30 30 31 32 33 36 39 39 40 41 41 41 41 41 42 42 44 45 46 45 45 45 45 45 45 44 42 41 38 36 36 34 33 30 28 27 27 30 34 36 37 35 36
11 11 11 11 10 9 9 9 10 10 12 15 20 25 27 30 32 32 32 32 31 31 34 37 39 40 42 42 42 43 43 42 42 43 44 44 45 46 46 46 46 45 45 46 47 46 46 44 41 39 38 37 35 32 29 27 27 29 32 35 36 36 36
12 12 11 11 11 10 10 10 10 10 11 14 17 21 25 28 31 32 33 34 32 31 33 37 40 43 44 44 44 44 44 44 45 46 47 47 48 49 49 48 47 46 47 47 48 49 49 47 44 42 41 39 38 34 30 28 27 27 30 34 36 36 36
15 14 13 13 12 11 11 12 11 11 12 13 15 18 23 27 31 33 34 34 32 31 33 35 38 41 42 42 42 43 44 46 47 48 48 48 48 48 48 49 48 48 48 48 47 49 48 48 48 48 46 42 40 36 32 28 27 27 28 32 36 37 36
19 18 17 15 15 14 13 12 12 13 13 13 14 16 20 26 30 33 33 32 30 31 34 35 36 37 37 38 39 41 44 44 45 46 46 46 46 46 46 47 47 48 48 47 47 46 46 48 51 51 49 45 41 39 35 31 28 26 27 30 34 37 37
22 21 20 18 17 16 14 13 13 14 14 14 15 16 18 23 28 31 32 31 30 31 33 34 34 34 33 35 38 41 43 44 44 45 45 44 44 44 45 46 46 47 47 47 47 48 49 52 52 50 50 47 44 42 38 35 31 28 27 29 32 36 39
23 22 22 20 19 17 15 14 14 15 15 15 16 18 20 22 26 30 33 32 32 32 33 33 33 34 34 36 39 41 43 44 45 44 44 43 43 43 44 45 45 45 45 46 47 49 52 55 54 51 49 48 48 46 41 37 35 31 28 28 31 35 40
25 24 23 22 20 19 17 16 15 16 17 17 18 21 22 23 26 30 33 33 33 33 34 34 35 37 37 37 39 40 42 43 43 43 43 42 42 42 43 44 44 44 45 46 46 47 50 54 55 53 52 51 52 50 46 41 38 34 31 31 32 35 39
28 25 23 23 22 21 18 17 17 17 18 19 20 22 24 25 26 29 31 32 33 33 32 33 34 37 38 38 38 38 40 41 41 40 39 38 39 40 41 42 43 44 45 45 47 48 49 51 53 55 56 57 56 53 49 45 42 38 35 34 33 34 37
30 28 26 25 23 22 20 18 17 18 18 19 19 22 24 25 26 28 30 31 32 31 31 32 33 34 35 36 36 36 36 37 37 37 37 37 38 39 40 41 43 44 43 43 44 46 47 48 49 54 59 60 57 54 51 48 46 42 38 37 37 36 36
33 32 31 28 24 23 21 19 18 18 18 19 20 23 25 26 26 27 28 29 30 30 31 33 33 33 33 34 35 36 36 36 36 37 37 37 37 38 39 40 41 41 42 42 43 44 46 46 45 49 54 57 57 57 54 51 50 47 42 39 39 37 37
38 37 36 32 28 25 23 21 21 21 20 23 26 28 28 28 28 28 28 28 29 29 30 31 31 34 35 36 36 38 39 39 38 38 38 39 39 39 40 40 41 42 42 42 43 46 48 50 49 48 50 52 53 54 53 53 53 51 47 45 42 38 40
42 40 37 34 31 29 27 24 24 23 23 25 29 32 33 33 32 30 29 29 29 29 28 28 30 34 36 37 37 38 38 39 39 39 39 40 40 40 41 42 44 45 45 46 48 49 51 54 55 51 48 47 48 49 51 52 52 51 51 52 49 44 43
43 40 37 34 33 34 33 31 27 25 24 24 26 29 32 34 33 32 32 31 30 29 28 29 30 34 37 38 38 37 37 38 38 38 39 39 40 40 41 43 45 47 49 52 53 52 53 54 56 56 54 53 54 56 57 56 55 54 55 57 57 54 50
44 42 39 37 36 38 39 38 34 30 27 25 24 25 26 28 29 29 29 29 27 27 28 29 31 35 39 40 40 39 39 39 39 38 39 38 38 39 40 41 43 45 47 47 47 48 49 51 53 55 56 57 61 65 65 63 61 56 53 56 60 61 58
46 44 42 41 40 40 42 43 41 36 31 28 28 27 25 25 26 25 25 24 23 24 25 27 29 32 36 38 41 42 41 40 39 39 37 37 38 38 39 40 41 41 41 40 39 41 44 45 47 48 48 51 57 61 63 62 59 54 53 57 61 61 60
48 47 45 44 44 43 44 44 43 38 34 31 31 30 29 28 28 27 27 26 26 26 26 26 27 29 30 32 35 38 38 39 40 40 38 37 37 37 38 38 39 39 39 38 38 39 40 42 44 45 45 48 50 51 51 51 50 52 57 61 63 63 62
49 49 47 45 44 44 45 45 44 42 40 37 34 33 32 32 31 31 30 30 30 30 29 29 29 29 30 31 32 33 34 36 38 40 40 39 39 38 37 37 37 36 36 36 37 38 39 41 42 44 47 49 49 49 49 49 48 51 53 57 64 70 71
51 50 48 45 44 43 43 43 45 45 45 44 41 39 37 36 35 34 33 32 31 31 30 30 30 30 31 31 32 32 33 34 35 37 38 39 40 41 40 39 38 38 37 37 37 38 39 40 41 42 45 47 48 49 50 51 52 53 52 55 64 70 71